Location: Ermatingen
(47.6706°N, 9.0857°E)
Time: 07:41:34
(UTC+00:00)

Cosmos 1428 Rocket - Pass Details

Date: 06 December 2021
Orbit: 949 x 987 km, 82.9° (Epoch: 26 January)

Event Time Altitude Azimuth Distance (km) Brightness Sun altitude
Rises 17:38:26 0° 344° (NNW) 3,637 7.6 -20.3°
Reaches altitude 10° 17:41:07 10° 336° (NNW) 2,690 7.0 -20.8°
Maximum altitude 17:46:35 35° 273° (W) 1,498 6.1 -21.7°
Drops below altitude 10° 17:52:04 10° 210° (SSW) 2,692 7.3 -22.6°
Sets 17:54:45 0° 201° (SSW) 3,640 7.9 -23.0°
